sat.trackr.live / text

‹ back to catalog

ONEWEB-0607

NORAD 54671 · 2022-166AF

PAYLOAD ACTIVE UNKNOWN

§ Identity

Operator
Country
UK
Launch date
2022-12-08
Launch site
AFETR
Launch vehicle
Mass (kg)
RCS (m²)

Purposes: comms

External: N2YO · Heavens-Above · Gunter

§ Orbital elements

Epoch: 2026-05-25T00:55:49.173312Z

Period
108.94 min
Inclination
87.9259°
Eccentricity
0.0002038
Mean motion
13.21827425 rev/d
Perigee alt
1,176.2 km
Apogee alt
1,179.3 km
Semi-major
7,555.9 km
B*
-1.0440e-7
RAAN
248.5746°
Arg perigee
95.8991°
Mean anomaly
264.2375°
Rev number
16,848

§ Raw data

ONEWEB-06071 54671U 22166AF  26145.03876358  .00000013  00000+0 -10440-6 0  99972 54671  87.9259 248.5746 0002038  95.8991 264.2375 13.21827425168486

JSON: /api/v1/satellites/54671 · /tle

For live sub-satellite position, see the globe view (requires WebGL).

§ Visibility from observer

Set your observer location to see the next 7 days of passes ≥ 10°. The values pass through the URL so the page stays shareable.

No JS? Fill the form by hand. The geolocation button needs JavaScript.